GFSSE_con_sbcape_159.txt.gz
CAPE
324 689 857 899 747 861 1029 1435 1527 1250 670 1488 1702 1563 1389 1648 1240 976 708 1677 1924 2198 2294 2186 2358 2459 2138 2367 2296 2320 2336 2470 2509 2392 2235 2226 2181 2179 2309 1839 2129 2054 2663
140 421 1010 925 836 839 1100 1512 1429 1307 1521 1665 1643 1350 1672 1721 1281 1074 1543 1845 1607 1596 1838 1957 2261 2014 2252 2319 2273 2297 2309 2371 2351 2358 2168 2386 2344 2594 2566 2685 3030 2350 2375
40 380 914 803 842 807 887 1391 1059 550 430 1350 829 1310 1663 1370 1786 1707 1773 1878 1929 1758 1813 1907 2093 2156 2203 2125 2214 2298 2366 2162 2134 2469 2489 1114 1736 2115 2183 2338 2404 2635 2570
92 126 303 1274 935 605 605 504 586 284 830 1482 1481 1339 1651 1662 1755 1719 1700 1870 1891 1859 1966 2000 2057 2110 2205 2277 2084 1881 1858 1558 1398 1686 1952 397 706 1934 1541 1288 1379 1403 1339
183 231 248 861 852 771 636 588 682 635 1169 1431 1490 1444 1515 1669 1850 1782 1579 1698 1810 2060 2127 2007 1927 1902 1949 1747 1651 1454 1333 1493 1899 2051 1223 1422 1018 1959 2191 1971 1892 1799 1887
159 37 478 603 613 628 636 667 265 993 1248 1289 1608 1619 1579 1727 1659 1846 1886 1676 2137 2211 2162 2169 2134 2090 2016 1732 1696 1455 1595 2036 2419 1159 1723 1945 1858 1881 1409 1096 966 898 888
70 96 234 603 483 227 151 659 934 737 925 1158 1348 1497 1681 1751 1800 1895 1770 1989 1732 1742 2031 2228 2134 2082 2079 2217 1935 1513 1522 2008 1866 1628 1456 1216 1025 1212 1117 1232 1309 1329 1306
17 32 26 208 394 821 109 497 824 605 758 892 1120 1357 1533 1758 1873 2064 1942 1895 1759 1755 2020 2007 2329 2394 2417 2184 1904 1698 1774 1747 1480 1585 1411 1219 1426 1270 1370 1420 1549 1704 1675
19 15 30 51 348 258 242 434 801 797 760 793 683 936 1017 1200 1575 1869 1911 1937 1872 1886 2021 1821 2161 2614 2425 2307 2283 1857 1202 1131 1384 1618 1576 1430 1525 1335 1322 1375 1554 1335 1773
135 71 32 60 174 981 478 434 404 196 256 249 350 881 1684 2043 2083 2050 2356 2236 1876 2015 1909 1530 1501 1746 2039 2489 2384 2179 1486 1382 1128 1416 1119 799 1487 1568 1319 1412 1618 1775 1779
271 179 46 742 447 727 479 238 126 146 269 576 681 1343 2254 1521 1020 1397 1916 1856 1824 1831 1491 1190 1138 1518 1688 2154 2537 2652 2572 1526 958 1184 984 611 1279 1736 1839 1955 2083 2322 2593
224 321 937 577 1065 283 67 371 414 655 1442 1119 1384 1554 1495 1491 1200 756 1165 1292 1271 1159 1008 902 1085 1452 1651 1250 1252 2703 2289 1191 917 1029 793 493 884 1362 1103 1860 2596 2871 3019
150 256 511 953 91 531 1371 282 243 1177 1007 1414 1548 2405 1389 567 307 393 746 894 887 1277 828 1108 1189 1580 957 768 1238 1263 1166 1266 1023 946 559 578 527 1039 1092 1861 2119 2545 2864
157 339 1139 607 571 427 1371 364 669 1355 1225 1409 1326 573 1279 532 429 413 682 675 688 1000 702 766 708 1175 1304 1515 1290 1425 1327 1048 1060 1050 736 827 767 654 1006 1886 2238 2432 2679
105 513 722 565 800 434 962 1346 764 1118 614 344 463 544 737 541 603 661 1026 1012 608 548 974 981 778 1210 981 1071 1191 1401 1310 1187 1036 1012 1489 1720 1244 1188 1300 1757 1931 2243 2546
160 458 498 461 878 570 917 721 853 1057 401 344 354 863 1220 894 2626 933 1081 740 578 725 721 873 1445 934 693 492 797 1202 1093 940 1136 1305 1315 1701 2101 1762 1292 1262 1463 1835 2222
288 411 449 395 462 584 593 738 739 571 619 470 834 1590 1631 2090 2575 1969 1060 1999 807 1651 1441 1127 1425 719 407 434 782 1006 993 953 1121 1339 1498 1517 1664 2035 1536 1220 1185 1533 2238
392 642 535 329 661 533 678 1018 632 1103 354 430 533 1462 1717 2300 1956 1588 1712 1965 1095 1497 828 730 968 432 429 411 529 627 796 705 1006 1331 1411 1643 1724 1888 1824 1493 1423 1814 2541
353 819 712 424 736 559 1161 1116 1314 840 641 350 734 1503 1755 1940 2057 1886 2580 1729 2219 759 1022 1079 609 897 450 398 308 324 446 534 1038 752 1084 1567 1754 1906 2766 2211 2110 2416 1762
350 820 966 523 1061 909 1206 1963 1724 566 774 578 578 1530 1796 1770 1965 2253 1578 1986 2331 649 804 2242 2281 823 1156 407 336 349 400 601 648 569 857 968 1360 1505 2136 2764 2595 1705 1933
459 771 1106 894 1633 1084 1116 1293 1967 1654 1462 616 733 1976 1792 1725 2063 1888 1477 1657 1649 2011 2543 1453 1849 1598 442 531 526 360 392 467 492 723 809 843 985 938 1865 2321 2503 2230 1821
848 992 1234 1409 1874 1469 1174 1638 1428 1497 865 1323 1385 1975 1881 1855 1978 1745 2230 1531 1982 1564 1773 2137 2554 2214 957 982 1424 451 288 388 297 279 771 674 897 839 1592 2035 2324 2307 2490
1443 1330 1513 1760 1889 1845 1898 1309 1492 1339 1966 997 1262 1570 1882 1893 1848 2042 2240 2171 2264 1949 1822 2288 2306 3100 1860 1029 2071 1369 978 543 203 673 825 463 1014 845 1008 1981 1850 2073 2088
1279 1392 1765 1827 2037 1866 2237 2347 2825 1514 1064 852 1694 1403 2040 1982 1698 1845 2014 2083 2235 2022 2973 1866 1957 2674 3025 2043 1257 368 1723 2018 763 261 949 1041 960 699 677 1084 1388 2161 1949
1080 1483 1590 2218 2739 2394 2599 2874 1953 2164 1344 2164 732 2948 2462 3095 1998 1744 2005 2365 2617 2225 1737 2534 2439 2696 2238 1855 1141 1866 1949 463 1093 311 76 648 1566 1045 789 680 1230 1384 1916
1045 1158 1446 2218 2766 2526 2216 2083 2703 2813 2476 2472 1826 1744 1443 1596 2076 2170 1985 2347 2598 2376 1630 1829 2503 2742 2863 3255 2108 2178 733 375 947 778 493 1390 286 621 951 661 1052 1312 1534

GFSSE_con_sbcape_162.txt.gz
CAPE
437 753 1221 855 905 1117 1368 1548 1118 807 1076 1651 1788 1366 1519 1186 1097 1153 1847 2117 2253 1971 1952 2453 2856 3069 2271 2152 2317 2287 2501 2922 2807 2368 2160 2294 2506 2798 2522 2194 2286 2151 2621
339 726 1244 980 864 1304 1353 1462 796 1004 1681 1600 1490 1521 1727 1139 1014 959 1700 2021 1896 1976 2027 2281 2506 2428 2412 2256 2364 2173 2328 2672 2779 2467 2459 2499 2593 2560 2080 2449 2395 2290 2333
198 704 816 1514 891 1224 1524 1025 732 528 709 782 1244 1783 1512 1526 1380 1674 1857 1753 1608 1836 1956 2245 2326 2181 2177 2239 2261 2256 2242 2334 2592 2473 2985 1189 1491 1676 1842 2187 2533 2538 2407
51 532 386 1625 1157 862 765 626 520 827 1222 925 1718 1528 1467 1452 1568 1578 1695 1864 1891 1740 2171 2151 2318 2444 2316 2016 1789 1800 1778 1518 1712 2066 2215 696 1394 1902 1443 1503 1521 1296 1334
161 284 556 1301 1217 779 906 691 80 266 1151 1637 1691 1494 1431 1455 1563 1725 1674 1628 1953 2531 2343 1879 1657 1882 1605 1399 1182 1070 1231 1647 2242 2299 1741 985 1353 2103 1914 1901 1599 1395 1675
117 68 1123 1049 840 831 827 524 1119 1306 1298 1651 1320 1569 1461 1636 1816 1880 1943 2014 2082 2138 2141 2083 2084 1936 1684 1465 1278 1302 1705 2203 2588 2114 1392 1666 1312 1258 1071 1113 1167 1112 975
65 95 235 782 670 731 933 515 911 1188 1261 1433 1326 1588 1522 1600 1781 1854 2136 2003 2116 2129 2202 2033 2013 1978 1998 1809 1484 1438 1592 2125 2528 1361 1101 883 1125 1698 1359 1426 1459 1441 1428
28 120 13 349 557 593 1087 1152 925 998 1199 1343 1588 1457 1596 1810 1933 1966 1709 1591 1673 1969 1980 2172 2230 2196 2025 1668 1449 1536 1730 1956 1741 1425 1313 1015 1680 1769 1487 1503 1650 1602 1699
21 30 0 44 211 208 986 1259 1200 1190 893 900 1151 1237 1310 1642 1941 1913 1456 1717 1770 1961 1806 2122 2351 2218 2119 1949 1864 1620 1626 2028 1488 1543 1255 1237 1834 1560 1376 1462 1496 1488 1661
6 16 63 87 306 519 474 703 779 755 349 184 176 393 762 1414 1841 1855 2526 2092 1915 1833 1594 1514 1900 2409 2446 2336 2286 1854 1879 1948 1271 1090 841 1400 2046 1526 1432 1585 1760 1987 2144
0 8 103 409 450 186 206 216 321 303 284 159 213 743 1791 1868 1883 1639 2219 2184 1906 1820 1499 1213 1357 1624 1954 2681 3228 3131 2317 1627 1027 949 558 1232 1645 1782 2047 2303 2442 2523 2719
23 43 126 383 227 139 83 411 246 454 382 216 229 1006 2122 1548 1393 1106 1883 1796 1772 1572 1308 1501 1946 2113 1853 1317 1932 3235 2478 1433 1104 994 455 1089 1144 1293 1251 1830 2344 3100 2828
403 589 258 87 2 117 106 306 416 778 1028 792 856 1092 538 757 947 623 1393 1122 1382 1541 1068 1343 1295 1406 1349 1622 654 1466 1534 942 876 778 559 895 1064 1233 1220 1549 1997 2477 2946
208 879 852 259 5 175 88 215 231 516 582 448 1332 1723 1104 726 894 761 1020 1221 1309 1356 1386 1306 1316 1937 1835 2003 651 1531 692 676 794 832 734 1586 1439 854 643 1629 2188 2404 2577
388 428 497 268 235 42 9 1 0 198 644 1004 1641 1949 1181 636 752 603 1133 1338 1295 1527 1482 264 1596 1473 1558 1725 1685 1560 956 1227 1378 1108 1025 2215 2017 1768 1352 1838 1780 2136 2499
466 678 486 1123 395 0 0 1 27 199 524 699 620 835 921 1531 1851 1841 395 1506 1538 890 1027 2031 2928 1652 1710 1180 1187 2019 1494 1372 1489 1906 1588 1529 2376 2322 1880 1359 1558 1891 2491
294 500 649 828 950 335 0 136 302 567 365 665 1120 1453 119 1156 257 1002 1181 2965 1335 2054 2655 2002 2083 1996 1274 827 1772 1470 1765 1169 1838 1610 2015 1674 1899 2557 2099 1546 1635 2301 2818
200 867 502 196 440 999 1290 1922 1729 140 847 1673 1370 1920 0 0 728 252 706 337 1979 2430 1906 2062 2124 1635 1185 1102 1471 1514 1607 1319 1388 2120 1956 1824 2104 1662 2224 2098 2212 3149 3018
577 1077 687 571 532 872 2066 2024 100 354 2020 873 990 1560 10 0 1043 292 0 0 2721 1095 1299 1119 1058 1999 1789 1254 875 1318 1093 1260 1735 1061 1474 1750 1983 2349 1973 2298 2640 2797 2373
929 1363 1139 1257 1183 2193 2500 2906 2134 1843 1247 2246 2241 1320 2842 2627 2509 157 0 0 3317 1539 1944 384 300 1881 2247 2162 341 568 1042 1216 1180 1311 1195 1460 1770 2253 2125 1566 2469 1723 2454
692 1232 1614 1741 2151 1814 2074 2060 1044 2048 2333 2647 2210 2470 2921 2339 2529 3487 1960 2926 3555 2404 724 1645 1800 2346 2242 1680 1333 1359 1214 1159 230 2 385 1148 1327 1708 2529 2950 3140 1525 2065
787 1226 2062 2122 2368 2089 1734 2306 1937 2819 1749 2476 2466 3164 2295 2300 3022 3060 3455 3373 3643 3459 3051 3689 3671 1703 2224 2507 1813 2178 1198 34 0 0 0 963 1177 1249 2180 2739 2854 2492 2086
656 1354 1952 2334 2405 2024 2287 2602 2836 2969 1596 3087 2822 2539 2488 2710 2689 3184 2934 3079 3658 3423 2783 3174 4029 3052 951 104 1170 2299 486 0 0 0 0 265 30 597 2394 2242 2806 2686 1617
368 953 1888 2414 2557 2186 2806 2141 2637 2090 1748 2126 2751 2821 2348 2988 2808 3112 2902 2743 3112 3525 2210 2821 2497 2615 0 0 522 1448 1865 118 0 71 261 34 1 15 318 1635 2146 2661 2497
1114 661 1648 2421 2456 2666 2502 2777 2270 2098 2155 2315 2128 1773 2893 3507 3044 2405 3233 3403 3418 3460 3421 3147 3582 3819 2902 2111 567 273 258 1099 2479 0 384 119 104 268 48 0 1358 2137 2198
494 745 1842 2665 2419 2658 2519 2102 2486 2335 2476 2176 2811 2345 2205 2325 2483 3388 2856 3579 3598 3752 2775 2769 3608 3570 4558 3814 3328 2870 1818 1807 382 23 0 255 232 203 248 85 255 2503 2182

GFSSE_con_sbcape_165.txt.gz
CAPE
610 1013 1693 1292 1469 1588 1602 1232 1098 1143 1756 1884 1783 1483 1235 1186 1341 2148 2097 2226 2003 2193 2148 2151 2015 2202 2040 2047 2211 2254 2113 2265 2367 2515 2553 2323 2110 2739 2696 2452 2310 2075 2391
694 940 1899 1378 1483 1349 2034 1660 1718 2276 1603 1429 1452 1519 1208 1038 1053 1591 2175 2160 1942 2215 1618 2151 2196 2188 2193 2117 2148 2212 2477 2453 3155 2700 2550 2645 2475 2398 2351 2335 2208 2250 2443
724 950 1278 1754 1571 1364 1326 1692 1025 1044 898 1571 1787 1654 1390 1231 619 1709 1853 2024 1669 1608 1542 2381 2078 1957 2114 2068 2057 2076 2043 2279 2734 3053 1621 1044 1122 1759 2252 2576 2443 2292 2177
555 567 1048 1752 1665 1125 949 1131 1315 1122 933 1756 1668 1650 1619 1517 1546 1748 1600 1566 1681 1929 2174 2050 2198 2233 2093 1846 1865 1862 1698 1540 1869 1941 981 1095 1348 1513 1823 1633 1484 1550 1850
339 561 886 1554 1362 1156 693 264 856 1419 1743 1931 1633 1487 1493 1304 1652 1628 1756 1829 1787 1916 1984 1791 1632 1474 1276 1023 987 1019 1449 1727 1855 1875 976 1136 1604 1947 1956 1693 1597 1713 1726
264 649 1505 1377 1035 1109 872 831 1411 1693 1813 1540 1545 1531 1591 1535 1667 1579 1523 1718 2095 1919 2089 2155 1809 1322 1188 1203 1197 1303 1635 1903 2021 934 960 1281 711 1023 1116 1134 1171 1086 1007
136 590 837 1755 1263 929 666 1253 1457 1535 1566 1490 1697 1720 1738 1733 1779 1810 1847 2093 1941 1926 1830 1716 1663 1601 1649 1542 1391 1385 1624 2457 1566 413 461 594 1073 1833 1459 1459 1446 1449 1491
8 128 172 773 957 931 953 1064 1290 1334 1392 1400 1353 1693 1798 1867 1855 1714 1642 1852 2132 1986 1903 2000 1851 1625 1489 1445 1248 1284 1683 1995 756 497 544 763 1808 1959 1498 1572 1506 1552 1727
0 0 0 23 569 1052 1212 1158 1112 1209 1247 1317 1492 1714 1909 2043 1961 1510 1671 1725 1866 1748 1929 2037 1918 1785 1636 1625 1437 1985 1955 1719 1183 678 701 989 2057 1632 1468 1441 1365 1419 1510
0 0 0 2 89 194 615 1262 1032 929 1042 1036 1214 1383 1480 1941 1929 1442 2315 2384 1870 1736 1686 2043 2165 2116 2155 2188 2290 2605 2223 1675 723 838 1009 1335 2100 1621 1491 1570 1754 1938 2135
0 36 94 66 18 11 77 636 441 417 141 122 521 704 1732 1276 1387 1496 1768 2075 1973 1864 1476 1318 1649 2051 2346 2593 3366 3319 2840 1389 473 311 430 1896 2235 1941 2048 2235 2385 2405 2605
0 18 40 15 0 1 38 54 93 166 77 31 54 101 922 1048 909 1211 1616 2012 2040 1978 1716 1478 1529 1636 1680 1414 1123 1480 2138 1964 374 124 152 1767 2304 2007 1724 2128 2043 2860 2821
0 49 138 0 8 2 10 96 140 149 82 35 67 227 270 334 983 1040 1234 1479 1301 1699 954 1304 1428 1603 829 21 207 346 0 58 297 142 276 1689 2247 1321 1714 1680 1918 2250 2558
2 0 0 0 20 36 33 71 70 180 169 175 202 167 120 218 295 368 608 674 723 563 692 585 496 737 859 20 640 0 0 8 429 298 142 1705 2268 2109 1358 1759 2188 2365 2582
3 7 0 0 16 0 2 0 14 79 196 107 184 641 284 346 140 257 323 496 610 557 650 744 641 721 675 68 102 0 0 392 428 339 86 2064 2032 1858 1800 2070 2093 2394 2824
219 149 0 0 0 0 0 0 0 0 58 275 443 352 71 446 488 396 292 339 627 539 557 361 635 570 682 411 232 656 365 456 517 419 265 1201 2392 2257 2203 1947 2050 2775 3164
143 150 0 26 0 0 0 0 0 0 74 302 370 690 257 0 93 24 109 282 379 519 933 719 556 798 791 402 451 581 750 584 676 652 726 433 1588 2422 2402 2320 2413 2989 3523
127 201 191 202 0 0 0 0 82 95 122 366 259 199 17 1 7 0 0 79 166 376 800 666 725 873 670 209 264 426 513 422 417 787 684 907 723 1272 2309 2343 2598 3330 3238
154 178 143 95 0 0 0 5 65 193 62 482 1 5 3 71 5 0 0 0 0 1 672 380 238 548 586 283 332 308 238 188 54 177 0 20 840 937 1144 2204 2834 2978 2603
93 67 117 94 93 32 84 106 1 0 10 329 221 0 0 6 1 0 0 0 0 379 268 7 0 103 619 553 150 189 31 0 0 39 0 0 39 1333 980 1241 2213 1949 2494
288 197 227 375 212 943 983 887 312 385 1037 811 681 284 233 0 0 0 0 0 0 904 566 181 170 1224 1382 622 56 264 13 0 0 0 0 0 0 606 801 1595 901 1522 1901
396 513 426 355 758 469 940 780 695 915 873 661 331 146 783 0 0 15 26 272 1209 1549 605 1487 2073 955 917 8 395 137 0 0 0 0 0 0 10 0 175 934 784 949 1098
426 708 356 576 740 653 508 1153 1053 1157 695 1582 1628 1283 942 845 806 481 48 1278 1820 1436 916 934 1555 1389 406 0 175 273 28 0 0 0 0 35 0 0 0 151 117 883 949
472 882 835 979 851 746 928 914 730 321 883 1216 1411 1064 1404 1262 1292 1369 1645 1521 1466 1546 721 536 1730 193 0 0 14 91 67 0 0 0 23 45 0 0 0 40 0 116 1033
367 1167 1107 1369 1206 652 806 1210 1045 549 1035 1007 1377 1471 1408 1581 1488 1910 1472 1559 1999 1828 1724 1535 1696 2058 1496 241 367 2 4 0 84 30 90 1 82 0 0 0 0 113 1113
855 476 162 125 1112 1021 950 1173 1222 641 637 1206 1319 1477 1645 1586 1732 1493 1660 1690 1903 1976 1764 1189 1936 2153 1934 1319 373 46 53 239 99 0 0 10 37 30 12 0 18 72 795

GFSSE_con_sbcape_168.txt.gz
CAPE
545 1048 1902 1841 1677 1425 1347 1193 1253 1523 1640 1507 1266 1158 1024 1213 1945 2110 2168 2203 2107 2099 2238 2314 2216 2186 2077 2198 2351 1902 1993 2113 2149 1947 1912 2097 2127 2138 2415 2440 2206 1960 2217
670 1038 2035 2014 1635 1508 1249 1071 1753 1628 1503 1285 1485 1200 1083 1097 1782 2127 2161 2065 2012 2208 2288 2219 2010 2156 2198 2379 2239 2180 2278 2375 2586 2740 2081 2038 1781 2078 2371 2393 2304 2151 2277
849 1230 1429 2094 1691 1407 1479 1770 1461 1124 1288 1428 1521 1254 1107 683 1324 2127 2176 2029 1792 1953 2146 2403 2132 2314 2226 2223 2253 1991 2190 2245 2517 2251 2147 1253 1999 2322 2268 2179 2219 2265 2352
823 887 1207 2076 1809 1183 1141 1024 1096 913 1718 1680 1763 1570 1106 1031 1762 1904 1903 1718 1755 1767 2173 2083 2288 2387 2327 2247 2328 2207 2054 1985 2464 1216 579 645 949 1735 1937 2215 2241 2144 2100
460 829 1157 1675 1435 1105 1241 1389 1099 1434 1560 1696 1548 1632 1649 1612 1544 1555 1394 1781 2021 2193 2302 2231 2061 1723 1224 1186 1225 1204 1363 1561 1759 1589 1194 1333 1514 1918 1939 1729 1514 1362 1189
579 605 1554 1396 1328 722 513 1383 1549 1995 1766 1588 1571 1403 1252 1643 1697 1772 1742 1870 1856 1444 2092 1999 1400 1252 1206 1229 1452 1564 1837 2400 1319 800 1109 1584 1031 1737 1384 1092 1222 1529 1539
578 895 1150 1962 1278 825 784 1302 2031 1616 1783 1628 1725 1793 1781 1914 1561 1643 1785 2013 1995 1854 1726 1534 1536 1663 1699 1590 1584 1604 2217 2630 577 602 563 699 1173 2024 1610 1525 1461 1396 1328
510 676 944 1433 1134 1151 1366 1554 1733 1543 1756 1868 1920 1957 1997 2010 1948 1939 2019 2054 2123 1699 1707 1739 1640 1660 1585 1429 1299 1671 2622 1681 631 438 573 889 1854 2188 1838 1804 1722 1770 1884
160 49 97 628 873 1110 1300 1500 1638 1607 1608 1534 1886 2039 2071 2107 1858 1848 1901 2006 1799 1753 1759 1753 1721 1655 1499 1594 2007 2669 1878 1560 648 505 766 1068 2231 1898 1763 1526 1490 1611 1718
0 0 0 49 151 444 902 1367 1484 1546 1572 1666 1850 1933 2287 2007 1737 1869 2483 2464 1709 1652 2033 1963 1976 2105 2446 2770 2924 2910 2226 1981 883 759 714 980 2258 1733 1692 1767 1830 1884 2078
0 2 37 30 44 82 499 950 1230 1512 1518 1511 1439 1693 1792 1393 1096 1444 1722 2153 1850 1725 1535 1678 1880 2101 2103 1651 1473 1700 2370 1459 538 707 838 1807 2467 1892 2000 2160 2297 2379 2438
0 5 1 0 1 24 349 124 99 223 35 61 124 289 916 881 930 1259 1567 1968 1949 1895 1769 1573 1563 1727 1617 62 173 737 411 568 494 145 316 2373 2838 2370 2460 2692 2684 2712 2674
0 2 0 0 0 0 28 80 143 94 37 12 86 258 243 279 570 1179 1017 1468 1251 1645 1264 1178 1464 1462 115 1 245 22 59 0 302 165 202 2099 2777 2417 2068 2091 2202 2480 2483
0 0 0 0 0 0 53 96 128 99 110 102 168 63 111 174 242 444 488 739 574 520 504 581 424 583 24 1 0 0 1 0 236 212 55 1213 2720 2342 1852 1959 2190 2428 2471
0 0 0 0 0 0 47 61 50 106 169 144 127 199 116 112 85 23 126 213 357 362 382 353 461 482 482 0 144 60 66 0 209 496 51 591 2595 2864 2179 2225 2451 2514 2547
30 0 0 0 0 0 5 15 8 3 58 99 92 12 0 38 93 78 214 356 383 284 309 382 419 375 487 2 5 206 197 37 152 319 169 80 2599 2466 2663 2231 2292 2739 2597
69 35 0 0 0 0 0 0 0 0 0 63 151 112 0 0 2 5 53 201 342 65 151 221 443 489 398 146 0 0 24 319 156 376 370 313 1510 2729 2631 2518 2678 3215 3031
164 121 0 2 0 0 0 0 0 0 0 118 194 1 0 0 0 2 3 44 0 0 33 488 462 562 540 170 137 64 63 98 0 34 309 895 841 1395 2559 2510 2711 3117 2743
198 84 6 20 0 0 0 0 13 75 87 101 98 0 0 18 20 0 0 0 0 0 70 233 136 299 285 137 174 20 0 5 31 0 37 257 830 1059 1196 2255 2999 3080 2524
198 85 74 99 0 0 0 0 43 24 25 80 0 0 0 13 42 0 0 0 0 0 139 0 0 89 743 185 287 1 0 0 15 0 0 195 826 1100 820 1014 2328 2223 2649
146 188 150 115 6 0 0 5 42 2 33 227 0 0 0 0 1 0 0 0 0 0 302 297 56 787 101 41 42 85 66 0 0 0 0 72 117 915 761 1121 887 1469 2063
24 56 76 105 82 80 129 242 49 10 523 680 19 0 0 0 0 0 0 1 2 379 750 413 1196 910 241 9 375 39 0 0 0 0 0 68 0 37 716 850 1017 861 1174
15 3 50 31 99 290 343 297 436 403 525 453 101 124 9 0 0 0 0 10 817 1081 747 778 1083 851 32 44 120 121 43 0 0 0 0 0 0 0 0 58 473 799 688
92 151 124 77 313 183 228 423 576 202 373 537 613 408 84 0 0 195 0 353 1090 813 355 620 1304 26 0 3 56 40 42 0 0 22 7 0 0 0 0 0 0 211 1033
214 352 529 185 323 277 194 329 376 119 150 638 755 822 639 156 374 733 897 1050 1013 1275 970 1112 1268 1069 433 24 56 0 0 0 0 78 93 15 0 0 0 0 2 15 431
682 836 497 726 327 271 295 655 499 348 132 681 695 848 714 1027 925 1106 1060 1094 1263 1405 1270 913 1067 1270 1521 683 122 0 3 221 220 26 4 0 0 0 12 0 0 4 637

GFSSE_con_sbcape_171.txt.gz
CAPE
401 851 1950 1824 1709 1723 1674 1555 1441 1436 1426 1298 1225 1355 1601 2074 2372 2273 2199 2125 2174 2161 2017 1954 1801 1649 1729 1669 1839 1812 1829 1554 1679 1798 1773 1789 1867 2139 2326 2333 2339 2035 2272
594 1010 1907 2062 1683 1634 1402 1366 1698 1913 1672 1587 1425 1235 1303 2017 2261 2339 2208 2283 2087 2209 2038 2000 2003 1879 1685 1743 1601 1766 1734 1816 1985 1908 1876 2039 1966 2328 2075 2149 2081 2067 2188
915 1159 1290 2276 1813 1601 1352 1693 1719 1531 1452 1687 1463 1351 1224 1738 2317 2198 2127 2008 2092 2105 2104 2168 1694 1703 1508 1296 1294 1635 1806 2042 2005 2119 1880 1446 1640 2162 2252 2227 2138 2128 2321
1088 1076 1410 2251 2010 1473 1757 1666 1348 1473 1662 1685 1527 1259 927 1533 1748 2170 2026 1827 1968 2281 2117 2047 1905 1899 1523 1513 1786 1721 1801 1670 1528 1757 808 924 1789 2081 2011 1936 2077 2184 2268
839 899 1405 1788 1664 1484 1275 1402 1274 1624 1882 1950 1740 1423 1562 1816 1842 1807 1813 1884 2172 2080 2162 2013 2009 1794 1887 1894 1684 1604 1763 1750 1638 850 932 886 1197 1476 1576 1689 1765 2068 2145
730 822 1568 1595 1398 1443 1638 1445 1546 1557 1809 1716 1712 1792 1683 1652 1426 1478 1863 2023 1991 2059 1911 1544 1283 1121 1158 1193 1348 1612 1641 1892 2050 966 928 1506 1269 1806 1751 1711 1710 1443 1266
589 875 1345 1809 1417 1108 1609 1618 1694 1936 1763 1792 1547 1728 1950 1946 1998 1889 1948 1820 1800 2174 1833 1364 1362 1347 1429 1494 1481 1674 2009 1891 724 947 848 660 970 1785 1246 1188 1277 1245 1263
684 954 1267 1692 1147 921 1095 1757 1837 1802 1722 1852 1713 2102 2125 1731 1723 1965 2069 1846 1693 1643 1612 1658 1742 1621 1463 1171 1361 1993 2261 1500 693 470 570 865 1834 1936 1657 1558 1572 1611 1613
348 316 751 1036 1034 1379 1426 1726 1677 1780 1758 1933 1959 2072 2161 1918 2100 2106 1977 2131 1702 1672 1644 1662 1576 1627 1693 1751 1818 2036 1853 1264 170 148 661 977 2257 2107 1861 1833 1806 1850 1970
0 0 80 365 540 819 1153 1729 1665 1760 1696 1946 1928 1991 2218 1896 1893 1864 2439 2002 1575 1692 1925 1941 2150 2075 2497 2461 2560 2536 2384 2001 544 396 685 991 2210 1851 1813 1603 1775 1764 1804
0 0 60 141 226 225 517 1182 1343 1626 1870 1722 1710 1915 2064 1303 1353 1476 1903 1782 1752 1687 1697 1756 1790 1895 2058 1633 1467 1737 2396 1220 687 535 751 1078 2192 1908 1798 1883 2031 2140 2329
0 4 18 55 71 127 527 203 295 400 103 274 531 925 987 921 1085 1202 1654 1954 1914 1851 1757 1553 1614 1879 1823 229 153 639 371 372 882 628 482 1395 1995 2156 2196 2091 2420 2529 2424
0 9 2 7 1 25 70 72 96 6 5 80 190 264 248 207 525 1028 827 1165 1132 1696 1283 867 1021 1278 999 11 54 0 3 0 538 342 255 607 2202 2401 2297 2221 2176 2317 2230
0 8 0 0 1 0 105 131 109 61 24 107 181 67 149 168 200 340 432 442 380 422 299 477 391 479 574 1 9 0 0 0 384 260 122 403 1306 2155 2116 2001 2117 2280 2079
0 0 0 0 0 18 114 117 90 99 97 139 205 212 182 166 141 74 78 113 198 260 274 312 254 339 597 457 36 79 127 15 131 587 71 704 891 1985 2226 1950 2282 2498 2453
0 0 0 0 0 22 62 46 37 46 90 180 193 73 83 160 179 62 138 241 254 49 97 210 335 394 444 458 216 4 20 161 362 371 360 69 592 2213 2220 2311 2350 2550 2511
0 0 0 0 0 0 4 2 0 7 29 85 177 60 12 76 202 148 119 187 223 0 31 168 192 311 322 345 61 75 135 325 613 444 485 131 305 1870 2182 2529 2869 3357 2832
0 0 0 0 0 0 0 0 0 0 34 119 176 187 16 9 15 42 86 145 0 0 121 196 209 237 250 180 106 133 153 36 92 373 531 430 546 1103 1939 2723 2769 2752 2872
13 2 0 0 0 0 0 0 0 0 2 29 114 128 0 12 3 0 0 0 0 0 269 32 10 113 316 71 118 4 12 1 8 26 219 759 497 745 1219 1556 2475 2026 2531
90 44 0 0 0 0 0 0 7 33 58 110 67 19 15 7 81 15 0 0 0 0 200 5 0 402 251 74 4 0 0 0 0 0 1 332 654 818 813 983 1466 1663 2010
157 88 14 5 0 0 0 0 22 86 57 73 0 0 0 0 0 1 0 0 0 0 137 290 287 476 91 0 0 43 0 0 0 0 4 190 853 924 658 736 1319 1332 1952
150 123 69 53 0 0 0 0 17 8 95 136 21 0 0 0 0 0 4 0 0 47 688 325 958 701 39 39 122 0 0 0 0 0 0 9 39 431 1015 1046 1153 858 1294
99 141 125 57 16 0 0 54 136 96 298 319 47 0 2 5 1 0 0 0 37 768 509 717 901 467 32 55 0 26 18 0 0 0 0 0 0 0 1 108 536 645 829
34 105 137 89 61 56 100 111 335 313 426 341 148 0 23 3 0 0 0 0 621 680 383 313 894 39 0 15 0 0 6 0 0 45 0 0 0 0 0 0 0 134 769
15 54 70 101 102 112 161 132 226 100 117 211 305 145 204 60 0 0 119 0 528 772 609 576 620 27 71 0 0 0 0 0 0 19 46 2 0 0 0 0 0 0 26
32 131 151 63 127 92 109 122 126 106 59 283 265 377 376 204 96 49 440 388 600 800 700 890 864 1017 969 303 30 0 0 190 254 23 5 0 0 4 0 0 0 0 5

GFSSE_con_sbcape_174.txt.gz
CAPE
340 850 2035 1909 1647 1517 1523 1538 1423 1294 1228 1324 2017 1994 2078 2175 2150 2160 2077 1980 1826 1754 1488 1385 1424 1569 1561 1780 1891 1913 1800 1803 1854 1843 1904 1957 2130 2424 2605 2610 2366 2182 2572
538 994 1955 2145 1829 1736 1676 1676 1669 1641 1425 1302 1365 1703 2031 2219 2368 2313 2050 2196 2004 1890 1607 1618 1613 1655 1731 1656 1827 1833 1813 1933 1979 1927 1991 1994 2322 2213 2319 2317 2269 2195 2161
991 1221 1519 2424 1904 1675 1563 1722 1989 1675 1686 1532 1377 1434 1908 2178 2280 2233 2145 2196 2037 2006 1681 1540 1565 1469 1338 1400 1566 1510 1762 1989 1991 1969 2022 1638 1893 2236 2265 2199 2293 2309 2435
1057 1089 1287 2287 2181 1560 1650 1845 1564 1517 1748 1589 1535 1340 1745 2262 2252 2200 1982 2187 2110 2046 1674 1646 1680 1522 1544 1546 1621 1619 1493 1451 1982 2073 1206 1436 1872 2162 2122 2219 2033 1940 2086
1050 1098 1453 2036 1885 1700 1659 1462 1404 1657 1850 1750 1464 1176 1571 1859 2331 2104 2038 1979 1925 2066 2036 1975 1734 1520 1482 1382 1444 1595 1795 1782 1273 806 768 1125 1387 2023 2223 2205 2128 2164 2119
838 1058 1777 1980 1757 1481 1440 1458 1449 1792 2036 1854 1678 1644 1863 2017 1934 1970 2096 2042 1998 2208 1964 1744 1625 1604 1554 1411 1424 1627 1864 1997 1807 1026 1151 1728 1608 1705 1525 1399 1252 1084 1201
696 943 1554 1866 1528 1612 1669 1466 1499 1919 1860 1584 1753 1830 1846 1696 1754 1935 2127 2012 2309 2046 1496 1261 1232 1224 1403 1601 1481 1754 1871 2044 1017 1121 1214 1070 1312 1565 1165 1201 1547 1332 1413
611 978 1322 1654 1424 1313 1620 1533 1395 1744 1906 1798 1632 1690 1846 1851 1927 2116 2065 2096 2052 1633 1508 1553 1694 1695 1511 1376 2209 2341 2191 1666 902 803 681 842 1465 1526 1383 1321 1269 1284 1312
591 790 1061 1143 984 1137 1167 1175 1534 1897 1610 1751 1753 2043 1981 1946 2152 2174 2085 1849 1685 1619 1599 1631 1501 1476 1687 1838 2156 2270 2036 1224 463 666 677 1042 1609 1785 1670 1615 1588 1656 1824
92 171 203 475 744 879 1014 1323 1734 1718 1518 1886 2058 2159 2109 2266 2305 2352 2631 1982 1612 1639 1470 1597 1820 2133 2447 2362 2532 2229 2038 1442 382 301 764 1001 1632 1725 1713 1459 1425 1603 1651
0 17 174 197 94 362 553 1224 1558 1653 1938 1879 1868 1780 1662 1370 1478 1737 2170 1748 1799 1792 1844 1845 1914 2035 2346 1666 1491 1999 2554 1057 1019 611 793 978 1708 1884 1822 1702 1846 1903 2020
0 5 78 104 71 344 664 239 394 562 420 417 663 583 946 845 1184 1303 1953 1972 1948 1872 1824 1881 1846 2154 1516 427 315 499 556 698 979 791 835 1294 1654 1808 1851 2041 2132 2258 2262
0 0 11 23 5 99 131 94 36 23 61 147 268 328 400 280 716 959 855 1055 1019 1473 1047 818 658 976 1125 195 45 101 26 137 874 829 549 538 1400 2092 2326 2020 1854 1954 2080
0 0 0 0 0 28 123 86 30 1 19 168 74 195 241 275 394 557 472 492 428 426 275 422 636 667 713 331 60 34 128 80 959 645 464 472 655 1399 2189 2130 1970 2208 2279
0 0 0 0 0 3 70 71 27 50 79 174 172 205 239 258 213 216 182 197 257 329 410 598 706 686 707 789 220 428 382 279 527 1126 603 682 800 862 1938 2124 2127 2332 2485
0 0 0 0 0 8 62 47 24 87 168 193 202 198 139 222 174 109 171 279 335 175 226 373 526 737 708 575 405 255 221 502 774 814 881 624 828 765 1949 1777 2263 2439 2518
0 0 0 0 0 10 58 28 1 15 83 138 229 56 32 72 161 159 202 252 313 0 156 420 442 706 652 627 397 400 627 754 1061 944 852 691 594 746 2007 1683 2623 2685 2368
0 0 0 0 0 0 0 0 0 1 35 75 176 201 68 12 44 84 75 192 11 6 429 317 330 447 422 454 327 405 343 398 447 667 801 694 622 606 1615 2279 2602 2723 2174
0 0 0 0 0 0 0 0 0 0 1 32 107 154 29 0 43 0 3 10 0 100 98 36 188 499 264 248 199 168 123 129 81 55 358 753 662 1062 1428 1756 2320 2427 2120
7 0 0 0 0 0 0 0 0 0 0 36 50 50 72 0 86 13 0 0 0 18 403 0 529 164 209 212 64 32 49 26 0 30 235 647 831 1055 1354 1436 1933 2135 1977
21 0 0 0 0 0 0 0 0 0 0 17 58 13 10 0 84 21 0 0 0 3 350 329 575 288 214 18 153 220 129 0 0 4 124 557 1000 1186 1073 1130 1763 1930 2174
29 4 0 0 0 0 0 0 0 0 11 43 31 0 0 0 3 20 5 0 0 177 753 396 798 800 169 139 396 163 35 0 0 3 45 136 129 402 1220 1016 1464 1486 1929
58 44 11 3 0 0 0 2 18 40 103 134 44 0 0 0 0 0 0 0 0 615 605 863 918 406 209 148 107 183 142 9 0 0 0 38 10 26 126 513 791 1299 1261
76 81 58 16 0 0 0 5 89 51 122 176 204 35 9 2 34 0 0 0 45 807 491 412 773 132 0 180 17 1 1 0 0 176 49 34 5 23 12 42 103 355 1171
97 108 108 36 15 15 15 0 65 79 80 110 152 61 6 46 58 6 27 0 45 842 740 520 678 41 82 23 11 0 0 0 0 162 250 161 19 55 82 1 44 2 200
47 74 86 38 29 18 59 51 71 96 60 107 129 145 102 119 65 59 87 150 23 691 963 834 887 925 853 323 69 0 0 492 559 179 91 74 61 226 63 99 138 65 62